[[{"header":{"parameterUnit":"m.s-1","parameterCategory":1,"la1":30.2991,"la2":30.254,"lo1":-89.0895,"lo2":-89.0444,"dy":0.0017,"dx":0.0017,"nx":28,"ny":28,"refTime":"2025-05-14T21:00:00:Z","depth":0,"parameterNumber":2,"parameterNumberName":"U-component_of_WINDS"},"data":[0,0,0,0,0,0,0,0,0,0,0,0,0,0,0,0,0,0,0,0,0,0,0,0,0,0,0,0,0,0,0,0,0,0,0,0,0,0,0,0,0,0,0,0,0,0,0,0,0,0,0,0,0,0,0,0,0,0,2.0746,2.0747,0,2.0827,2.0828,2.0829,2.0834,2.0833,2.0832,2.0831,2.0915,2.0918,2.0921,0,0,0,0,0,0,0,0,0,0,0,0,0,2.0597,2.06,2.0746,2.0747,2.0748,2.0827,2.0828,2.0829,2.0834,2.0833,2.0832,2.0831,2.0914,2.0918,2.0921,0,0,0,0,0,0,0,0,0,0,0,0,0,2.0668,2.0601,2.0746,2.076,2.0762,2.0826,2.0828,2.0829,2.0834,2.0833,2.0832,2.083,2.0913,2.0917,2.0922,2.0978,0,0,2.0936,2.0938,0,0,0,0,0,0,0,0,2.0664,2.0674,2.0757,2.0759,2.0761,2.0819,2.0806,2.0879,2.0835,2.0807,2.0831,2.083,2.0884,2.0891,2.0909,2.0982,2.0986,2.0937,2.0939,2.0941,2.0943,0,0,0,0,0,0,0,2.0659,2.067,2.0778,2.0758,2.0761,2.0763,2.0771,2.082,2.0852,2.0809,2.081,2.0819,2.0885,2.0905,2.0911,2.0987,2.0936,2.0941,2.0943,2.0945,2.111,2.1111,0,0,0,0,0,0,2.0651,2.0666,2.0775,2.078,2.0708,2.0766,2.0776,2.0802,2.0852,2.0858,2.082,2.0819,2.0898,2.0906,2.0914,2.0984,2.0941,2.0946,2.0948,2.1108,2.111,2.1112,0,0,0,0,0,0,2.0648,2.0661,2.0772,2.0723,2.0738,2.077,2.0799,2.0804,2.0824,2.086,2.0866,2.0834,2.0897,2.0908,2.0962,2.0987,2.0948,2.0952,2.1107,2.1109,2.1111,2.1122,0,0,0,0,0,0,2.0644,2.066,2.0681,2.0724,2.074,2.0818,2.0801,2.0807,2.0832,2.0831,2.0875,2.0881,2.0897,2.0955,2.0967,2.0992,2.0956,2.1104,2.1108,2.111,2.112,2.1125,2.1129,0,0,0,0,0,2.0638,2.0681,2.0682,2.0695,2.0767,2.082,2.0829,2.0846,2.0834,2.0855,2.0879,2.0879,2.0982,2.0961,2.0974,2.1001,2.1103,2.1107,2.111,2.1118,2.1124,2.1129,0,0,0,0,0,0,2.0641,2.0687,2.0689,2.0746,2.0779,2.082,2.0848,2.0852,2.0889,2.0887,2.0906,2.0916,2.097,2.0991,2.0967,2.1058,2.1041,2.1048,2.1043,2.1049,2.1053,2.1047,2.0959,0,0,0,0,0,2.0648,2.0686,2.0724,2.0772,2.0788,2.0815,2.0839,2.0849,2.0884,2.0898,2.0925,2.0959,2.0999,2.1025,2.1064,2.1123,2.1133,2.1148,2.1153,2.1156,2.1162,2.1195,2.1202,2.1124,2.1124,2.1124,0,0,2.0663,2.0693,2.0716,2.0773,2.0799,2.0839,2.0827,2.0869,2.0899,2.0904,2.0957,2.0978,2.1018,2.1075,2.1101,2.1094,2.1185,2.1161,2.1163,2.1167,2.1199,2.1207,2.1213,2.1126,2.1126,2.1125,0,0,2.0711,2.0737,2.078,2.0806,2.0847,2.0865,2.0875,2.0916,2.0931,2.0984,2.0989,2.1025,2.1093,2.1121,2.1144,2.1203,2.1205,2.1215,2.1239,2.1271,2.1277,2.1283,2.1304,2.1312,2.122,2.122,2.122,0,2.0725,2.0784,2.0801,2.0843,2.0868,2.0875,2.0918,2.0944,2.0995,2.1012,2.1003,2.1089,2.1116,2.118,2.1194,2.1213,2.1225,2.121,2.1275,2.1281,2.1286,2.1307,2.1315,2.1221,2.1221,2.1221,2.1221,0,2.0799,2.084,2.087,2.0919,2.0947,2.099,2.1014,2.1041,2.1049,2.1068,2.1122,2.1155,2.1201,2.1217,2.1225,2.1282,2.1276,2.1271,2.1254,2.1294,2.1314,2.1322,2.1223,2.1222,2.1222,2.1222,0,0,2.085,2.0909,2.0919,2.0942,2.0987,2.1019,2.1062,2.1107,2.113,2.1165,2.1202,2.1259,2.1255,2.1281,2.1293,2.1321,2.1366,2.1312,2.1313,2.1321,2.1432,2.1436,2.1444,2.1368,2.1369,2.137,2.1428,0,2.0903,2.098,2.0997,2.1063,2.1102,2.1109,2.1147,2.1179,2.1198,2.1234,2.1255,2.1296,2.1286,2.1302,2.1331,2.1354,2.1388,2.135,2.1403,2.1404,2.1393,2.1455,2.1459,2.1512,2.1436,2.1438,2.1438,0,2.0975,2.1012,2.1082,2.1123,2.114,2.1173,2.1216,2.125,2.1286,2.1298,2.1328,2.1336,2.1382,2.1363,2.1426,2.14,2.1423,2.1438,2.144,2.1446,2.1424,2.1462,2.1529,2.1537,2.1451,2.145,2.1449,0,2.1006,2.1073,2.1124,2.1143,2.1191,2.1215,2.1236,2.1272,2.1298,2.1335,2.1352,2.1394,2.1417,2.1449,2.1469,2.1453,2.1531,2.1514,2.1543,2.1543,2.1559,2.1558,2.1631,2.1573,2.1573,2.1573,2.1573,0,2.1063,2.1106,2.1138,2.1169,2.1218,2.1237,2.1284,2.1306,2.1337,2.1373,2.1382,2.1415,2.1439,2.1476,2.1492,2.1543,2.1553,2.1564,2.1568,2.1564,2.1562,2.1579,2.1576,2.1575,2.1574,2.1574,2.1574,0,2.1106,2.1129,2.1185,2.1226,2.1238,2.1272,2.1307,2.1338,2.1358,2.1403,2.1415,2.1446,2.149,2.1513,2.1568,2.1578,2.1635,2.1637,2.1623,2.1624,2.1652,2.1649,2.1739,2.1752,2.1685,2.1685,2.1686,0,2.1141,2.1174,2.1219,2.1244,2.1266,2.1305,2.1332,2.1352,2.138,2.1424,2.145,2.1494,2.1531,2.1601,2.1629,2.1671,2.1674,2.1702,2.168,2.1675,2.1675,2.1673,2.1676,2.1706,2.1707,2.1707,2.1708,0,2.1201,2.1211,2.1249,2.1291,2.1322,2.1357,2.139,2.141,2.1436,2.1466,2.1512,2.154,2.1596,2.1641,2.1685,2.1707,2.1712,2.1714,2.1723,2.1719,2.171,2.1716,2.1634,2.1712,2.1712,2.1711,2.1711,2.1711,2.1241,2.1271,2.1308,2.135,2.1378,2.1409,2.144,2.1464,2.1502,2.1549,2.1559,2.1607,2.1644,2.1704,2.1727,2.1765,2.176,2.1773,2.1776,2.1779,2.178,2.1704,2.1774,2.1773,2.1773,2.1773,2.1773,0,2.1302,2.1326,2.1365,2.1412,2.1445,2.1447,2.1484,2.1512,2.1554,2.1588,2.1624,2.1676,2.1719,2.175,2.1794,2.1818,2.1822,2.1829,2.1828,2.1833,2.1783,2.1771,2.1826,2.1826,2.1826,2.1826,2.1826,2.1826,2.1338,2.1389,2.1403,2.1468,2.1492,2.1539,2.1561,2.159,2.1617,2.1675,2.1711,2.1731,2.1763,2.181,2.185,2.1858,2.1874,2.1881,2.189,2.1842,2.1837,2.1831,2.182,2.1885,2.1885,2.1937,2.1937,2.1938]},{"header":{"parameterUnit":"m.s-1","parameterCategory":1,"la1":30.2991,"la2":30.254,"lo1":-89.0895,"lo2":-89.0444,"dy":0.0017,"dx":0.0017,"nx":28,"ny":28,"refTime":"2025-05-14T21:00:00:Z","depth":0,"parameterNumber":3,"parameterNumberName":"V-component_of_WINDS"},"data":[0,0,0,0,0,0,0,0,0,0,0,0,0,0,0,0,0,0,0,0,0,0,0,0,0,0,0,0,0,0,0,0,0,0,0,0,0,0,0,0,0,0,0,0,0,0,0,0,0,0,0,0,0,0,0,0,0,0,5.548,5.548,0,5.5439,5.5438,5.5438,5.5412,5.5412,5.5412,5.5412,5.5364,5.5363,5.5362,0,0,0,0,0,0,0,0,0,0,0,0,0,5.5534,5.5533,5.548,5.5479,5.5479,5.5439,5.5438,5.5438,5.5412,5.5412,5.5412,5.5412,5.5365,5.5363,5.5362,0,0,0,0,0,0,0,0,0,0,0,0,0,5.5503,5.5533,5.548,5.5462,5.546,5.5439,5.5438,5.5437,5.5412,5.5412,5.5412,5.5412,5.5365,5.5364,5.5362,5.5355,0,0,5.5357,5.5356,0,0,0,0,0,0,0,0,5.5505,5.5501,5.5465,5.5463,5.546,5.543,5.544,5.541,5.5412,5.543,5.5412,5.5412,5.5386,5.5383,5.5375,5.5353,5.5351,5.5356,5.5355,5.5355,5.5354,0,0,0,0,0,0,0,5.5507,5.5503,5.5463,5.5464,5.5462,5.5454,5.545,5.5434,5.5409,5.5428,5.5427,5.5422,5.5385,5.5377,5.5374,5.535,5.5357,5.5355,5.5354,5.5353,5.5321,5.5321,0,0,0,0,0,0,5.5513,5.5505,5.5465,5.5462,5.5483,5.5454,5.5448,5.544,5.541,5.5405,5.5422,5.5421,5.538,5.5376,5.5372,5.5363,5.5355,5.5353,5.5352,5.5321,5.5321,5.5321,0,0,0,0,0,0,5.5514,5.5509,5.5466,5.5483,5.5477,5.5453,5.5444,5.5439,5.5431,5.5405,5.54,5.5419,5.538,5.5375,5.536,5.5361,5.5352,5.5351,5.5321,5.5321,5.5321,5.5344,0,0,0,0,0,0,5.5516,5.551,5.5508,5.5483,5.5476,5.5456,5.5444,5.5439,5.5429,5.5427,5.5401,5.5396,5.5379,5.5363,5.5358,5.5359,5.5349,5.5321,5.5321,5.5321,5.5343,5.5345,5.5347,0,0,0,0,0,5.5518,5.5514,5.5508,5.5503,5.5473,5.5456,5.5452,5.5434,5.5429,5.5426,5.541,5.5397,5.5362,5.5362,5.5356,5.5356,5.532,5.5321,5.5321,5.5342,5.5345,5.5347,0,0,0,0,0,0,5.5537,5.5511,5.5503,5.5492,5.5477,5.5452,5.5448,5.5437,5.5422,5.542,5.5397,5.5391,5.538,5.5366,5.5366,5.5348,5.534,5.5339,5.5358,5.536,5.5362,5.5365,5.5348,0,0,0,0,0,5.5541,5.553,5.5507,5.55,5.5493,5.5472,5.5464,5.5452,5.5434,5.5427,5.5409,5.5392,5.5377,5.5368,5.5352,5.5342,5.5336,5.5339,5.5341,5.5342,5.5342,5.5337,5.5338,5.5323,5.5323,5.5323,0,0,5.5547,5.5531,5.5525,5.5503,5.549,5.5479,5.5466,5.5455,5.5446,5.5425,5.5411,5.5397,5.5376,5.5364,5.5358,5.5353,5.5345,5.5343,5.5344,5.5343,5.5337,5.5339,5.534,5.5323,5.5323,5.5323,0,0,5.5553,5.554,5.5533,5.5521,5.5502,5.5488,5.5487,5.5464,5.5455,5.5441,5.5425,5.5414,5.5389,5.5375,5.5365,5.5369,5.5356,5.5364,5.5373,5.5369,5.537,5.5371,5.5373,5.5374,5.5364,5.5364,5.5364,0,5.5562,5.5546,5.553,5.552,5.5511,5.5494,5.5486,5.5475,5.5451,5.5445,5.544,5.541,5.5394,5.5379,5.5381,5.5372,5.537,5.5367,5.5371,5.5372,5.5373,5.5374,5.5375,5.5365,5.5365,5.5365,5.5365,0,5.556,5.5549,5.5545,5.5526,5.5516,5.5508,5.5489,5.5482,5.5471,5.5458,5.5445,5.5426,5.5408,5.5403,5.5391,5.5387,5.5385,5.5376,5.5366,5.5376,5.5377,5.5377,5.5367,5.5366,5.5366,5.5366,0,0,5.5575,5.5548,5.5547,5.5539,5.5518,5.5509,5.55,5.5484,5.5478,5.5463,5.5455,5.5435,5.5428,5.5416,5.5403,5.5399,5.5404,5.5391,5.539,5.5394,5.54,5.5407,5.5408,5.5396,5.5397,5.5397,5.5402,0,5.5578,5.5562,5.5548,5.5537,5.5528,5.5512,5.5504,5.5491,5.5479,5.5468,5.5454,5.5441,5.5432,5.5425,5.542,5.5405,5.5405,5.5404,5.5388,5.5388,5.5394,5.5408,5.5415,5.542,5.5402,5.5402,5.5402,0,5.5579,5.5567,5.5556,5.5538,5.5533,5.5527,5.5512,5.5502,5.5487,5.5478,5.5467,5.5454,5.5444,5.5436,5.5422,5.5421,5.5414,5.5406,5.5406,5.5403,5.5395,5.5406,5.5422,5.5423,5.5402,5.5402,5.5402,0,5.5592,5.5573,5.5565,5.5558,5.5536,5.5532,5.5523,5.5507,5.5499,5.5486,5.548,5.5466,5.5457,5.5446,5.5429,5.5425,5.5417,5.5408,5.5409,5.541,5.5408,5.5408,5.5422,5.5403,5.5403,5.5403,5.5403,0,5.5597,5.5591,5.5571,5.5565,5.5558,5.5542,5.5535,5.5524,5.5511,5.5503,5.5488,5.548,5.5459,5.5449,5.5436,5.5427,5.5423,5.5415,5.5412,5.5417,5.5418,5.5411,5.5411,5.5403,5.5403,5.5403,5.5403,0,5.561,5.5596,5.5586,5.5567,5.5563,5.5558,5.5542,5.5536,5.5525,5.5515,5.5512,5.5493,5.548,5.5463,5.5445,5.5436,5.5429,5.5423,5.5435,5.5433,5.5436,5.5436,5.5446,5.5447,5.5427,5.5428,5.5428,0,5.5613,5.5609,5.5591,5.5586,5.5577,5.5568,5.5561,5.5545,5.5538,5.5521,5.5518,5.5505,5.5494,5.5475,5.5459,5.5445,5.5439,5.5444,5.5437,5.5443,5.544,5.5441,5.544,5.5445,5.5446,5.5446,5.5446,0,5.5622,5.5616,5.5607,5.5596,5.5588,5.5578,5.5567,5.5563,5.5545,5.5538,5.5527,5.5518,5.5501,5.5489,5.5474,5.5463,5.5452,5.5449,5.5449,5.5453,5.5461,5.5458,5.544,5.5448,5.5448,5.5448,5.5448,5.5448,5.5631,5.5627,5.5614,5.5605,5.5596,5.5587,5.5581,5.557,5.556,5.5547,5.5538,5.5527,5.5513,5.5492,5.5482,5.5473,5.5468,5.5468,5.5468,5.5468,5.547,5.5463,5.547,5.547,5.547,5.547,5.547,0,5.5639,5.5631,5.5623,5.5609,5.5602,5.5594,5.5583,5.5577,5.5568,5.5557,5.5547,5.5535,5.5523,5.5508,5.5495,5.5491,5.5486,5.5488,5.5488,5.5486,5.5474,5.5476,5.5493,5.5493,5.5493,5.5493,5.5493,5.5493,5.5642,5.5636,5.5629,5.5618,5.5609,5.56,5.5594,5.5586,5.5577,5.5564,5.5556,5.5546,5.5533,5.552,5.5509,5.5505,5.5501,5.5506,5.55,5.5489,5.5487,5.5485,5.5486,5.5505,5.5505,5.5512,5.5512,5.5512]}]]